Simultaneous Nadir Overpasses (SNOs) Predictions

Prediction of SNOs between GOES-16 and AQUA Satellite Orbit:

Table of predicted SNOs for the next 14.0 days since TLE Epoch: 11/7/2025
Index Date Time (GOES-16) GOES-16 Lat,Lon AQUA Lat,Lon Distance(km) Time Diff (sec)
1 11/07/2025 21:43:49 -0.02,-104.67 0.79,-100.85 433.65 80
2 11/08/2025 10:02:48 0.02,-104.70 0.17,-105.44 84.13 80
3 11/10/2025 21:58:12 -0.02,-104.66 -0.09,-104.89 27.46 80
4 11/13/2025 09:56:08 0.02,-104.70 -0.09,-104.33 42.98 80
5 11/13/2025 22:15:13 -0.03,-104.66 -0.97,-108.93 486.37 80
6 11/15/2025 21:56:49 -0.03,-104.67 0.15,-103.77 102.01 80
7 11/16/2025 10:15:46 0.04,-104.71 0.82,-108.35 413.66 80
8 11/18/2025 09:52:01 0.04,-104.72 -0.31,-103.19 174.85 80
9 11/18/2025 22:11:06 -0.05,-104.67 -0.71,-107.79 354.48 80
10 11/20/2025 21:52:40 -0.05,-104.68 0.42,-102.62 234.66 80
11 11/21/2025 10:11:37 0.06,-104.73 0.58,-107.20 280.54 80
